COSMOS 883

Satellite information

Favourite Embed

Satellite Type and Status

PAYLOADIN ORBIT

Key statistics

Satellite COSMOS 883 at a glance.

Uptime

17896

Days in orbit

Revolutions

≈ 13.8

Per day

Orbit

LEO

Low Earth Orbit

Inclination

83.0

Latest

Satellite identification and parameters

Extended collection of information and parameters for COSMOS 883.

Object identification

Identified? True

Debris? False

Object name: COSMOS 883

International designator: 1976-122A

Object number (NORAD): 9610

Object ID (CCSDS): 9610

Country: COMMONWEALTH OF INDEPENDENT STATES (CIS)

Current information (Y/N): Y

RCS size: LARGE

Orbital parameters

Period: 104.625 minutes

Inclination: 82.9537 deg

SMA: 7355.035 km

Apoapsis: 1002.429 km

Periapsis: 951.371 km

RAAN: 43.29 deg

Eccentricy: 0.00347091

Argument of periapsis: 19.771 deg

Mean anomaly: 340.4783 deg

Mean motion: 13.76339746 rev/day

Mean motion (dot): 0.00000084 rev/day2

B* drag term: 0.000070346806 1/REarth

Two-line elements (TLE)

Creation date: Dec. 12, 2025, 10:14 a.m.

Reference frame: TEME

Reference center: EARTH

Epoch: Dec. 12, 2025, 6:02 a.m. UTC

TLE line 0: 0 COSMOS 883

TLE line 1: 1 09610U 76122A 25346.25147303 .00000084 00000-0 70347-4 0 9996

TLE line 2: 2 09610 82.9537 43.2900 0034709 19.7710 340.4783 13.76339746459251

Live tracking on map

Real-time ground track for satellite COSMOS 883.

In-orbit conjunctions

A list of the most updated potential collisions computed for object COSMOS 883.

Target Orbit TCA Probability of collision Miss distance Type
DMSP 5D-2 F13 DEB SSO 2025-11-14 22:24:32 0.0002091158 510.0 (m) DEBRIS
COSMOS 2251 DEB LEO 2025-04-14 23:31:57 0.0003521108 795.0 (m) DEBRIS
THORAD AGENA D DEB SSO 2025-02-15 16:14:47 0.0004902637 214.0 (m) DEBRIS
COSMOS 778 LEO 2025-02-11 04:59:10 0.007153692 95.0 (m) PAYLOAD
THOR AGENA B DEB HEO 2024-09-18 03:01:37 0.002308183 118.0 (m) DEBRIS

Associated space launch

Civilian navigation satellite equivalent to the purely military Parus

COSMOS 883 was lifted into orbit during the mission ‘Kosmos-3M | Tsikada 1’, on board a Kosmos-3M space rocket.

The launch took place on Dec. 15, 1976, 1:59 p.m. from 132/1 (132L).

For more information about the launch, click the button.

Launch to space Kosmos-3M | Tsikada 1
Kosmos-3M | Tsikada 1

Agency: N/A

Status: Launch Successful

Launch date: Dec. 15, 1976, 1:59 p.m. UTC

Rocket: Kosmos-3M

Launch pad: 132/1 (132L)

Location: Plesetsk Cosmodrome, Russian Federation

...

Latest news about this satellite

There are no fresh news available about this satellite. Check back as we update our databases every day.


Newsletter sign-up

Weekly statistics, charts and insights to help you stay on top of the space industry.